www.pogodaiklimat.ru

Погода и климат >> Архив погоды >> Россия >> Ямало-Ненецкий АО >> Имени Попова


АРХИВ ПОГОДЫ в Имени Попова

Время (UTC), дата Ветер
(напр.,м/с)
 
Видим.   Явления Облачность Т
(С)
Тd
(С)
f
(%)
Тe
(С)
Тes
(С)
Комфортность P
(гПа)
Po
(гПа)
Тmin
(С)
Tmax
(С)
R
(мм)
R24
(мм)
S
(см)
18 18.05 В 5 20 км 3/0
[Cc]
-9.7 -10.9 91 -18 -17 1024.2 1023.5
21 18.05 СВ 5 20 км 1/0
[Ci fib]
-11.3 -12.6 90 -19 -19 1024.1 1023.3
00 19.05 В 4 20 км ясно -10.5 -12.1 88 -18 -17 1023.7 1022.9
03 19.05 СВ 3 20 км 9/9 360 м
[Sc]
-7.6 -8.8 91 -13 -13 1023.3 1022.6 -11.8 66
06 19.05 СВ 5 20 км 9/9 330 м
[Sc]
-3.7 -5.4 88 -11 -10 1022.8 1022.1
09 19.05 СВ 5 20 км 9/9 400 м
[Sc]
-3.3 -5.5 85 -10 -10 1022.3 1021.6
12 19.05 В 6 20 км 9/9 420 м
[Sc]
-3.8 -5.8 86 -11 -11 1022.0 1021.3
15 19.05 СВ 5 20 км 9/9 400 м
[Sc]
-5.5 -6.9 90 -13 -13 1021.7 1021.0 -3.2
18 19.05 СВ 5 20 км 3/3 300 м
[Sc]
-8.5 -9.5 92 -16 -16 1021.1 1020.4
21 19.05 СВ 5 20 км 1/0
[Ci fib]
-10.8 -11.8 92 -19 -19 1020.6 1019.9
00 20.05 СВ 5 20 км 3/0
[Ci]
-9.0 -10.2 91 -17 -16 1020.4 1019.7
03 20.05 СВ 5 20 км 6/0
[Ci]
-5.8 -7.5 88 -13 -11 1020.5 1019.8 -11.0 66
06 20.05 СВ 5 20 км 1/0
[Ci fib]
-2.9 -4.6 88 -10 -6 1020.7 1020.0
09 20.05 СВ 5 20 км 1/0
[Ci fib]
-2.0 -4.1 86 -9 -5 1021.0 1020.3
12 20.05 СВ 5 20 км 9/0
[Ci sp]
-2.3 -4.0 88 -9 -7 1021.2 1020.5
15 20.05 СВ 5 20 км 9/9 300 м
[Sc]
-3.6 -4.5 93 -11 -11 1020.9 1020.2
18 20.05 СВ 4 20 км 10/10 360 м
[Sc]
-4.3 -5.5 91 -11 -11 1020.2 1019.5
21 20.05 СВ 4 20 км 10/10 330 м
[Sc]
-4.4 -5.6 91 -11 -11 1019.1 1018.4
00 21.05 СВ 3 20 км 10/10 270 м
[St]
-4.6 -5.4 94 -10 -10 1018.1 1017.4
03 21.05 СВ 4 20 км 10/10 330 м
[Sc]
-3.5 -4.9 90 -10 -10 1017.2 1016.5 -4.8 65
06 21.05 СВ 4 20 км 10/10 420 м
[Sc]
-3.3 -5.4 85 -9 -9 1016.6 1015.8
09 21.05 СВ 4 20 км 9/9 540 м
[Sc]
-2.6 -5.6 80 -9 -8 1016.0 1015.3
12 21.05 СВ 2 20 км 3/1 300 м
[Sc Ci fib]
-2.5 -4.7 85 -6 -3 1015.6 1014.9
15 21.05 СВ 3 20 км 9/0
[Ac As Ci fib]
-4.8 -5.7 93 -10 -10 1014.5 1013.8 -2.2
18 21.05 СВ 2 10 км слаб. снег 10/0 360 м
[As op]
-3.8 -4.4 96 -8 -8 1013.4 1012.7
21 21.05 СВ 3 10 км слаб. снег 10/0 600 м
[As op]
-3.6 -4.3 95 -9 -9 1012.6 1011.9
00 22.05 СВ 2 10 км слаб. снег 10/0 500 м
[As op]
-3.4 -4.2 94 -8 -7 1011.7 1011.0
03 22.05 СВ 3 20 км в посл. час снег 10/10 570 м
[Sc]
-2.8 -4.6 87 -8 -8 1010.8 1010.1 -4.8 0.0 65
06 22.05 СВ 4 20 км {снег} 10/10 700 м
[Sc]
-2.3 -5.1 81 -8 -8 1010.5 1009.8
09 22.05 СВ 5 20 км 10/10 570 м
[Sc]
-2.5 -5.3 81 -9 -9 1010.6 1009.9
12 22.05 СВ 4 20 км 10/10 660 м
[Sc]
-2.4 -5.2 81 -8 -8 1010.2 1009.5
15 22.05 С 2 20 км 10/0
[Ac As]
-3.5 -4.9 90 -8 -7 1009.9 1009.2 -2.1
18 22.05 СВ 3 20 км 9/1 300 м
[Sc Ac As]
-4.8 -6.3 89 -10 -10 1009.3 1008.6
21 22.05 СВ 3 20 км 10/10 840 м
[Sc]
-4.4 -6.4 86 -10 -10 1008.8 1008.1
00 23.05 СВ 1 20 км 10/10 840 м
[Sc]
-4.1 -6.0 87 -6 -6 1008.6 1007.9
03 23.05 СВ 5 20 км 10/10 630 м
[Sc]
-4.0 -6.5 83 -11 -11 1008.5 1007.8 -4.8 65
06 23.05 В 3 20 км 10/10 660 м
[Sc]
-3.9 -6.5 82 -9 -9 1008.7 1008.0
09 23.05 В 4 20 км 10/10 570 м
[Sc]
-4.2 -6.8 82 -10 -10 1009.1 1008.4
12 23.05 В 4 20 км 10/10 570 м
[Sc]
-4.8 -7.1 84 -11 -11 1009.6 1008.9
15 23.05 СВ 2 20 км 10/10 400 м
[Sc]
-5.4 -7.2 87 -10 -10 1009.8 1009.1 -3.8
18 23.05 В 2 20 км 10/10 330 м
[Sc]
-5.6 -7.0 90 -10 -10 1009.8 1009.1
21 23.05 СВ 2 20 км 10/10 300 м
[Sc]
-6.2 -7.2 93 -11 -11 1009.6 1008.9
00 24.05 СВ 3 20 км 10/10 300 м
[Sc]
-6.2 -7.4 91 -12 -12 1009.5 1008.8
03 24.05 СВ 3 20 км 10/10 360 м
[Sc]
-5.5 -7.0 89 -11 -11 1009.1 1008.4 -6.3 65
06 24.05 В 5 20 км 10/10 420 м
[Sc]
-5.2 -7.1 86 -12 -12 1009.3 1008.5
09 24.05 СВ 7 20 км позёмок 10/10 360 м
[Sc]
-4.9 -6.3 90 -13 -13 1008.7 1008.0
12 24.05 СВ 8
{11}
20 км позёмок {снег} 10/10 480 м
[Sc]
-5.5 -7.2 88 -14 -14 1008.7 1008.0
15 24.05 СВ 8-10
{11}
20 км позёмок 10/10 420 м
[Sc]
-6.2 -7.8 88 -15 -15 1008.0 1007.3 -4.7
18 24.05 СВ 9-11
{11}
20 км позёмок 10/10 360 м
[Sc]
-6.6 -8.0 90 -16 -16 1007.2 1006.5
21 24.05 СВ 10-12
{13}
1000 м снежные зёрна {метель} 10/10 270 м
[St]
-6.3 -7.2 93 -16 -16 1005.7 1005.0
00 25.05 СВ 9-11
{13}
1000 м слаб. снег {метель} 10/0 300 м
[As op]
-5.2 -6.1 93 -15 -15 1005.5 1004.7
03 25.05 СВ 8-10
{12}
10 км слаб. снег {метель} 10/0 300 м
[As op]
-4.1 -5.1 93 -13 -13 1004.7 1004.0 -6.7 0.3 65
06 25.05 СВ 8
{11}
20 км позёмок {снег} 10/10 420 м
[Sc]
-2.8 -4.2 90 -11 -11 1004.0 1003.3
09 25.05 СВ 9-11
{13}
20 км позёмок 10/10 500 м
[Sc]
-1.4 -3.0 89 -10 -10 1003.4 1002.7
12 25.05 СВ 9-11
{13}
20 км позёмок 10/10 570 м
[Sc]
-1.1 -2.8 88 -9 -9 1003.2 1002.4
15 25.05 СВ 8-11
{13}
20 км позёмок 10/10 450 м
[Sc]
-1.6 -2.8 92 -10 -10 1002.7 1002.0 -0.9 0.0

 

Местоположение метеостанции Имени Попова (Ямало-Ненецкий АО, Россия): широта 73.33 долгота 70.05 высота над уровнем моря 6 м.

В архиве по умолчанию представлена погода в Имени Попова за последнюю неделю. Архивные данные за месяц целиком и за предыдущие месяцы, начиная с января 2011 года, Вы можете получить, выбрав интересующий диапазон дат из раскрывающегося списка и нажав кнопку "Ввод!".


*Определитесь, кто Вы:
робот инопланетянин человек

Внимание! Время в таблицах - всемирное. Для получения местного времени необходимо прибавить поправку, которая равна 5 ч.

Смотрите также архив погоды в соседних городах и на ближайших метеорологических станциях:

Погода в Тамбее (Ямало-Ненецкий АО, Россия) (214 км)
Погода на Острове Диксон (Красноярский край, Россия) (329 км)
Погода в Сеяхе (Ямало-Ненецкий АО, Россия) (362 км)
Погода в Гыде (Ямало-Ненецкий АО, Россия) (396 км)
Погода на Мысе Желания (Архангельская область, Россия) (405 км)
Погода в Марресале (Ямало-Ненецкий АО, Россия) (418 км)
Погода в Сопочной Карге (Красноярский край, Россия) (450 км)
Погода на Островах Известий ЦИК (Красноярский край, Россия) (477 км)
Погода в Усть-Каре (Ненецкий АО, Россия) (489 км)
Погода в Амдерме (Ненецкий АО, Россия) (493 км)

Пояснения к столбцам:

Ветер - указаны скорость ветра в м/с - средняя за 10 мин, порывы в срок и между сроками (в фигурных скобках) и направление, откуда дует ветер: С - северный, СВ - северо-восточный, В - восточный, ЮВ - юго-восточный, Ю - южный, ЮЗ - юго-западный, З - западный, СЗ - северо-западный.
Видимость - горизонтальная дальность видимости в метрах или километрах. При видимости от 1 до 10 км при отсутствии осадков обычно наблюдается дымка, при ухудшении видимости до 1 км и менее - туман. В сухую погоду видимость может ухудшаться дымом, пылью или мглою.
Явления - указаны атмосферные явления, наблюдавшиеся в срок или в последний час перед сроком; фигурными скобками обозначены явления, наблюдавшиеся между сроками (за 1-3 часа до срока); квадратными скобками обозначены град или гололедные отложения с указанием их диаметра в мм.
Облачность - указаны через наклонную черту общая и нижняя облачность в баллах и высота нижней границы облаков в метрах; квадратными скобками обозначены формы облаков: Ci - перистые, Cs - перисто-слоистые, Cc - перисто-кучевые, Ac - высококучевые, As - высокослоистые, Sc - слоисто-кучевые, Ns - слоисто-дождевые, Cu - кучевые, Cb - кучево-дождевые. Подробнее классификацию облаков см. в Атласе облаков (PDF).
T - Температура воздуха - температура, измеренная на высоте 2 м над землей.
Td - Температура точки росы - температура, при понижении до которой содержащийся в воздухе водяной пар достигнет насыщения.
f - Относительная влажность воздуха - влажноcть воздуха, измеренная на высоте 2 м над землей.
Te - Эффективная температура - температура, которую ощущает одетый по сезону человек в тени. Характеристика душности погоды. При расчете учитывается влияние влажности воздуха и скорости ветра на теплоощущения человека.
Tes - Эффективная температура на солнце - температура, которую ощущает человек, с поправкой на солнечный нагрев. Характеристика знойности погоды. Зависит от высоты солнца над горизонтом, облачности и скорости ветра. Ночью, в пасмурную погоду, а также при ветре 12 м/с и более поправка равна нулю.
P - Атмосферное давление - приведенное к уровню моря атмосферное давление.
Po - Атмосферное давление - измеренное на уровне метеостанции атмосферное давление.
Tmin - Минимальная температура - минимум температуры воздуха на высоте 2 м над землей.
Tmax - Максимальная температура - максимум температуры воздуха на высоте 2 м над землей.
R - Количество осадков - Количество выпавших осадков за период времени, мм. При наведении курсора мыши на число - период времени, за который выпало указанное количество осадков.
R24 - Количество осадков - Количество выпавших осадков за 24 часа, мм.
S - Снежный покров - Высота снежного покрова, см. При наведении курсора мыши на число - состояние снежного покрова и степень покрытия местности в баллах.